Time,TemperatureF,DewpointF,PressureIn,WindDirection,WindDirectionDegrees,WindSpeedMPH,WindSpeedGustMPH,Humidity,HourlyPrecipIn,Conditions,Clouds,dailyrainin,SoftwareType,DateUTC
2013-02-02 00:03:00,16.0,0.0,-100.00,NW,305,6.0,11.0,48,0.00,,,-99.99,,2013-02-02 05:03:00,
2013-02-02 00:12:00,16.0,0.0,-100.00,West,260,5.0,10.0,49,0.00,,,-99.99,,2013-02-02 05:12:00,
2013-02-02 00:22:00,16.0,0.0,-100.00,West,260,5.0,10.0,49,0.00,,,-99.99,,2013-02-02 05:22:00,
2013-02-02 00:33:00,16.0,0.0,-100.00,West,270,3.0,6.0,49,0.00,,,-99.99,,2013-02-02 05:33:00,
2013-02-02 00:41:00,16.0,0.0,-100.00,West,270,2.0,7.0,49,0.00,,,-99.99,,2013-02-02 05:41:00,
2013-02-02 00:52:00,15.0,0.0,-100.00,West,270,2.0,6.0,51,0.00,,,-99.99,,2013-02-02 05:52:00,
2013-02-02 01:02:00,15.0,0.0,-100.00,West,270,2.0,6.0,51,0.00,,,-99.99,,2013-02-02 06:02:00,
2013-02-02 01:12:00,16.0,1.0,-100.00,West,265,4.0,9.0,52,0.00,,,-99.99,,2013-02-02 06:12:00,
2013-02-02 01:22:00,16.0,1.0,-100.00,WSW,250,4.0,11.0,51,0.00,,,-99.99,,2013-02-02 06:22:00,
2013-02-02 01:32:00,16.0,1.0,-100.00,WSW,250,4.0,11.0,51,0.00,,,-99.99,,2013-02-02 06:32:00,
2013-02-02 01:42:00,16.0,1.0,-100.00,WSW,255,4.0,12.0,51,0.00,,,-99.99,,2013-02-02 06:42:00,
2013-02-02 01:51:00,16.0,1.0,-100.00,WSW,255,4.0,12.0,51,0.00,,,-99.99,,2013-02-02 06:51:00,
2013-02-02 02:02:00,16.0,1.0,-100.00,WSW,250,5.0,13.0,51,0.00,,,-99.99,,2013-02-02 07:02:00,
2013-02-02 02:12:00,15.0,0.0,-100.00,West,270,6.0,10.0,51,0.00,,,-99.99,,2013-02-02 07:12:00,
2013-02-02 02:21:00,15.0,0.0,-100.00,West,270,6.0,10.0,51,0.00,,,-99.99,,2013-02-02 07:21:00,
2013-02-02 02:32:00,15.0,0.0,-100.00,WSW,255,4.0,7.0,51,0.00,,,-99.99,,2013-02-02 07:32:00,
2013-02-02 02:42:00,15.0,0.0,-100.00,West,260,2.0,5.0,52,0.00,,,-99.99,,2013-02-02 07:42:00,
2013-02-02 02:51:00,15.0,0.0,-100.00,West,260,2.0,5.0,52,0.00,,,-99.99,,2013-02-02 07:51:00,
2013-02-02 03:01:00,14.0,0.0,-100.00,West,270,3.0,7.0,53,0.00,,,-99.99,,2013-02-02 08:01:00,
2013-02-02 03:11:00,14.0,0.0,-100.00,WSW,255,4.0,8.0,53,0.00,,,-99.99,,2013-02-02 08:11:00,
2013-02-02 03:21:00,14.0,0.0,-100.00,West,265,4.0,6.0,53,0.00,,,-99.99,,2013-02-02 08:21:00,
2013-02-02 03:32:00,14.0,0.0,-100.00,West,265,4.0,6.0,53,0.00,,,-99.99,,2013-02-02 08:32:00,
2013-02-02 03:41:00,14.0,0.0,-100.00,WSW,250,4.0,7.0,53,0.00,,,-99.99,,2013-02-02 08:41:00,
2013-02-02 03:52:00,14.0,0.0,-100.00,WSW,240,2.0,5.0,53,0.00,,,-99.99,,2013-02-02 08:52:00,
2013-02-02 04:01:00,14.0,0.0,-100.00,WSW,240,2.0,5.0,53,0.00,,,-99.99,,2013-02-02 09:01:00,
2013-02-02 04:11:00,14.0,0.0,-100.00,SW,230,2.0,6.0,53,0.00,,,-99.99,,2013-02-02 09:11:00,
2013-02-02 04:22:00,14.0,0.0,-100.00,SSW,195,1.0,3.0,54,0.00,,,-99.99,,2013-02-02 09:22:00,
2013-02-02 04:32:00,14.0,0.0,-100.00,SSW,195,1.0,3.0,54,0.00,,,-99.99,,2013-02-02 09:32:00,
2013-02-02 04:42:00,13.0,0.0,-100.00,South,180,1.0,3.0,55,0.00,,,-99.99,,2013-02-02 09:42:00,
2013-02-02 04:52:00,13.0,0.0,-100.00,South,180,1.0,3.0,55,0.00,,,-99.99,,2013-02-02 09:52:00,
2013-02-02 05:02:00,14.0,1.0,-100.00,South,180,2.0,4.0,56,0.00,,,-99.99,,2013-02-02 10:02:00,
2013-02-02 05:11:00,14.0,1.0,-100.00,South,170,3.0,4.0,56,0.00,,,-99.99,,2013-02-02 10:11:00,
2013-02-02 05:21:00,14.0,1.0,-100.00,South,170,3.0,4.0,56,0.00,,,-99.99,,2013-02-02 10:21:00,
2013-02-02 05:32:00,14.0,1.0,-100.00,WSW,245,1.0,4.0,56,0.00,,,-99.99,,2013-02-02 10:32:00,
2013-02-02 05:42:00,13.0,1.0,-100.00,South,180,2.0,4.0,57,0.00,,,-99.99,,2013-02-02 10:42:00,
2013-02-02 05:52:00,13.0,1.0,-100.00,SSE,150,2.0,4.0,58,0.00,,,-99.99,,2013-02-02 10:52:00,
2013-02-02 06:02:00,13.0,1.0,-100.00,SSE,150,2.0,4.0,58,0.00,,,-99.99,,2013-02-02 11:02:00,
2013-02-02 06:11:00,14.0,2.0,-100.00,South,170,2.0,4.0,58,0.00,,,-99.99,,2013-02-02 11:11:00,
2013-02-02 06:21:00,14.0,2.0,-100.00,South,170,2.0,4.0,58,0.00,,,-99.99,,2013-02-02 11:21:00,
2013-02-02 06:32:00,14.0,2.0,-100.00,South,170,2.0,4.0,58,0.00,,,-99.99,,2013-02-02 11:32:00,
2013-02-02 06:42:00,14.0,2.0,-100.00,SW,220,2.0,4.0,58,0.00,,,-99.99,,2013-02-02 11:42:00,
2013-02-02 06:52:00,14.0,2.0,-100.00,SSW,195,3.0,6.0,58,0.00,,,-99.99,,2013-02-02 11:52:00,
2013-02-02 07:02:00,14.0,2.0,-100.00,SSW,195,3.0,6.0,58,0.00,,,-99.99,,2013-02-02 12:02:00,
2013-02-02 07:11:00,13.0,1.0,-100.00,SW,235,2.0,3.0,58,0.00,,,-99.99,,2013-02-02 12:11:00,
2013-02-02 07:22:00,13.0,2.0,-100.00,SSE,150,1.0,3.0,59,0.00,,,-99.99,,2013-02-02 12:22:00,
2013-02-02 07:32:00,13.0,2.0,-100.00,SSE,150,1.0,3.0,59,0.00,,,-99.99,,2013-02-02 12:32:00,
2013-02-02 07:42:00,14.0,2.0,-100.00,South,175,2.0,4.0,59,0.00,,,-99.99,,2013-02-02 12:42:00,
2013-02-02 07:52:00,14.0,2.0,-100.00,South,175,2.0,4.0,59,0.00,,,-99.99,,2013-02-02 12:52:00,
2013-02-02 08:03:00,13.0,2.0,-100.00,SSW,205,2.0,2.0,60,0.00,,,-99.99,,2013-02-02 13:03:00,
2013-02-02 08:11:00,14.0,3.0,-100.00,SSW,210,1.0,2.0,61,0.00,,,-99.99,,2013-02-02 13:11:00,
2013-02-02 08:21:00,15.0,3.0,-100.00,SSW,210,1.0,3.0,61,0.00,,,-99.99,,2013-02-02 13:21:00,
2013-02-02 08:32:00,15.0,3.0,-100.00,SSW,210,1.0,3.0,61,0.00,,,-99.99,,2013-02-02 13:32:00,
2013-02-02 08:42:00,16.0,4.0,-100.00,SSW,195,2.0,4.0,60,0.00,,,-99.99,,2013-02-02 13:42:00,
2013-02-02 08:52:00,16.0,4.0,-100.00,SSW,195,2.0,4.0,60,0.00,,,-99.99,,2013-02-02 13:52:00,
2013-02-02 09:03:00,17.0,4.0,-100.00,South,180,2.0,4.0,58,0.00,,,-99.99,,2013-02-02 14:03:00,
2013-02-02 09:11:00,17.0,4.0,-100.00,West,260,2.0,4.0,57,0.00,,,-99.99,,2013-02-02 14:11:00,
2013-02-02 09:22:00,17.0,4.0,-100.00,SW,230,1.0,4.0,57,0.00,,,-99.99,,2013-02-02 14:22:00,
2013-02-02 09:33:00,17.0,4.0,-100.00,SW,230,1.0,4.0,57,0.00,,,-99.99,,2013-02-02 14:33:00,
2013-02-02 09:42:00,17.0,5.0,-100.00,SW,230,2.0,6.0,58,0.00,,,-99.99,,2013-02-02 14:42:00,
2013-02-02 09:52:00,17.0,5.0,-100.00,SW,230,2.0,6.0,58,0.00,,,-99.99,,2013-02-02 14:52:00,
2013-02-02 10:03:00,18.0,6.0,-100.00,SW,215,2.0,6.0,57,0.00,,,-99.99,,2013-02-02 15:03:00,
2013-02-02 10:12:00,19.0,6.0,-100.00,SW,220,2.0,6.0,57,0.00,,,-99.99,,2013-02-02 15:12:00,
2013-02-02 10:22:00,19.0,6.0,-100.00,SW,220,4.0,7.0,56,0.00,,,-99.99,,2013-02-02 15:22:00,
2013-02-02 10:32:00,19.0,6.0,-100.00,SW,220,4.0,7.0,56,0.00,,,-99.99,,2013-02-02 15:32:00,
2013-02-02 10:42:00,19.0,6.0,-100.00,SSW,195,6.0,8.0,56,0.00,,,-99.99,,2013-02-02 15:42:00,
2013-02-02 10:52:00,19.0,6.0,-100.00,SSW,195,4.0,9.0,56,0.00,,,-99.99,,2013-02-02 15:52:00,
2013-02-02 11:03:00,19.0,6.0,-100.00,SSW,195,4.0,9.0,56,0.00,,,-99.99,,2013-02-02 16:03:00,
2013-02-02 11:11:00,19.0,6.0,-100.00,South,190,6.0,9.0,55,0.00,,,-99.99,,2013-02-02 16:11:00,
2013-02-02 11:22:00,19.0,6.0,-100.00,South,190,6.0,9.0,55,0.00,,,-99.99,,2013-02-02 16:22:00,
2013-02-02 11:32:00,20.0,5.0,-100.00,South,170,7.0,11.0,53,0.00,,,-99.99,,2013-02-02 16:32:00,
2013-02-02 11:42:00,20.0,5.0,-100.00,SSW,200,6.0,11.0,52,0.00,,,-99.99,,2013-02-02 16:42:00,
2013-02-02 11:52:00,20.0,4.0,-100.00,South,180,6.0,12.0,50,0.00,,,-99.99,,2013-02-02 16:52:00,
2013-02-02 12:03:00,20.0,4.0,-100.00,South,180,6.0,12.0,50,0.00,,,-99.99,,2013-02-02 17:03:00,
2013-02-02 12:11:00,21.0,5.0,-100.00,South,180,7.0,13.0,49,0.00,,,-99.99,,2013-02-02 17:11:00,
2013-02-02 12:22:00,22.0,6.0,-100.00,SSW,200,7.0,12.0,50,0.00,,,-99.99,,2013-02-02 17:22:00,
2013-02-02 12:32:00,22.0,6.0,-100.00,SSW,200,7.0,12.0,50,0.00,,,-99.99,,2013-02-02 17:32:00,
2013-02-02 12:42:00,22.0,6.0,-100.00,SSW,200,5.0,12.0,50,0.00,,,-99.99,,2013-02-02 17:42:00,
2013-02-02 12:52:00,22.0,6.0,-100.00,SW,235,7.0,12.0,49,0.00,,,-99.99,,2013-02-02 17:52:00,
2013-02-02 13:03:00,22.0,6.0,-100.00,SW,235,7.0,12.0,49,0.00,,,-99.99,,2013-02-02 18:03:00,
2013-02-02 13:12:00,23.0,6.0,-100.00,SW,215,6.0,12.0,49,0.00,,,-99.99,,2013-02-02 18:12:00,
2013-02-02 13:22:00,23.0,6.0,-100.00,SSW,205,6.0,14.0,48,0.00,,,-99.99,,2013-02-02 18:22:00,
2013-02-02 13:32:00,23.0,6.0,-100.00,SSW,205,6.0,14.0,48,0.00,,,-99.99,,2013-02-02 18:32:00,
2013-02-02 13:42:00,23.0,6.0,-100.00,South,185,9.0,16.0,47,0.00,,,-99.99,,2013-02-02 18:42:00,
2013-02-02 13:52:00,24.0,6.0,-100.00,South,185,7.0,13.0,47,0.00,,,-99.99,,2013-02-02 18:52:00,
2013-02-02 14:02:00,24.0,6.0,-100.00,South,185,7.0,13.0,47,0.00,,,-99.99,,2013-02-02 19:02:00,
2013-02-02 14:12:00,24.0,6.0,-100.00,SSW,195,7.0,14.0,47,0.00,,,-99.99,,2013-02-02 19:12:00,
2013-02-02 14:21:00,24.0,6.0,-100.00,SSW,195,7.0,14.0,47,0.00,,,-99.99,,2013-02-02 19:21:00,
2013-02-02 14:32:00,24.0,6.0,-100.00,SSW,195,8.0,15.0,46,0.00,,,-99.99,,2013-02-02 19:32:00,
2013-02-02 14:42:00,24.0,6.0,-100.00,South,190,8.0,15.0,46,0.00,,,-99.99,,2013-02-02 19:42:00,
2013-02-02 14:51:00,24.0,6.0,-100.00,South,190,8.0,15.0,46,0.00,,,-99.99,,2013-02-02 19:51:00,
2013-02-02 15:02:00,24.0,6.0,-100.00,SSW,195,8.0,13.0,46,0.00,,,-99.99,,2013-02-02 20:02:00,
2013-02-02 15:12:00,25.0,6.0,-100.00,South,190,6.0,13.0,46,0.00,,,-99.99,,2013-02-02 20:12:00,
2013-02-02 15:21:00,25.0,6.0,-100.00,SSW,195,9.0,17.0,46,0.00,,,-99.99,,2013-02-02 20:21:00,
2013-02-02 15:32:00,25.0,6.0,-100.00,SSW,195,9.0,17.0,46,0.00,,,-99.99,,2013-02-02 20:32:00,
2013-02-02 15:42:00,25.0,7.0,-100.00,SSW,195,11.0,16.0,47,0.00,,,-99.99,,2013-02-02 20:42:00,
2013-02-02 15:52:00,25.0,7.0,-100.00,SSW,195,11.0,16.0,47,0.00,,,-99.99,,2013-02-02 20:52:00,
2013-02-02 16:02:00,24.0,9.0,-100.00,South,190,10.0,17.0,53,0.00,,,-99.99,,2013-02-02 21:02:00,
2013-02-02 16:11:00,24.0,10.0,-100.00,South,180,9.0,19.0,56,0.00,,,-99.99,,2013-02-02 21:11:00,
2013-02-02 16:21:00,24.0,10.0,-100.00,South,180,9.0,19.0,56,0.00,,,-99.99,,2013-02-02 21:21:00,
2013-02-02 16:32:00,23.0,14.0,-100.00,South,175,9.0,18.0,67,0.00,,,-99.99,,2013-02-02 21:32:00,
2013-02-02 16:42:00,23.0,14.0,-100.00,South,185,9.0,16.0,69,0.00,,,-99.99,,2013-02-02 21:42:00,
2013-02-02 16:52:00,23.0,15.0,-100.00,South,175,7.0,16.0,72,0.00,,,-99.99,,2013-02-02 21:52:00,
2013-02-02 17:03:00,23.0,15.0,-100.00,South,175,7.0,16.0,72,0.00,,,-99.99,,2013-02-02 22:03:00,
2013-02-02 17:12:00,23.0,15.0,-100.00,South,185,6.0,13.0,72,0.00,,,-99.99,,2013-02-02 22:12:00,
2013-02-02 17:21:00,24.0,16.0,-100.00,South,180,7.0,11.0,72,0.00,,,-99.99,,2013-02-02 22:21:00,
2013-02-02 17:32:00,24.0,16.0,-100.00,South,180,7.0,11.0,72,0.00,,,-99.99,,2013-02-02 22:32:00,
2013-02-02 17:42:00,24.0,16.0,-100.00,South,190,7.0,13.0,73,0.00,,,-99.99,,2013-02-02 22:42:00,
2013-02-02 17:52:00,24.0,17.0,-100.00,South,190,7.0,12.0,74,0.00,,,-99.99,,2013-02-02 22:52:00,
2013-02-02 18:02:00,24.0,17.0,-100.00,South,190,7.0,12.0,74,0.00,,,-99.99,,2013-02-02 23:02:00,
2013-02-02 18:11:00,24.0,17.0,-100.00,South,180,5.0,13.0,75,0.00,,,-99.99,,2013-02-02 23:11:00,
2013-02-02 18:21:00,24.0,17.0,-100.00,South,190,6.0,10.0,75,0.00,,,-99.99,,2013-02-02 23:21:00,
2013-02-02 18:32:00,24.0,17.0,-100.00,South,190,6.0,10.0,75,0.00,,,-99.99,,2013-02-02 23:32:00,
2013-02-02 18:42:00,24.0,17.0,-100.00,SSE,165,5.0,7.0,75,0.00,,,-99.99,,2013-02-02 23:42:00,
2013-02-02 18:52:00,24.0,17.0,-100.00,SSE,160,3.0,7.0,75,0.00,,,-99.99,,2013-02-02 23:52:00,
2013-02-02 19:02:00,24.0,17.0,-100.00,SSE,160,3.0,7.0,75,0.00,,,-99.99,,2013-02-03 00:02:00,
2013-02-02 19:11:00,24.0,17.0,-100.00,South,170,6.0,9.0,73,0.00,,,-99.99,,2013-02-03 00:11:00,
2013-02-02 19:22:00,25.0,17.0,-100.00,South,170,6.0,11.0,72,0.00,,,-99.99,,2013-02-03 00:22:00,
2013-02-02 19:32:00,25.0,17.0,-100.00,South,170,6.0,11.0,72,0.00,,,-99.99,,2013-02-03 00:32:00,
2013-02-02 19:42:00,25.0,17.0,-100.00,South,180,7.0,11.0,72,0.00,,,-99.99,,2013-02-03 00:42:00,
2013-02-02 19:52:00,25.0,17.0,-100.00,South,185,6.0,12.0,73,0.00,,,-99.99,,2013-02-03 00:52:00,
2013-02-02 20:02:00,25.0,17.0,-100.00,South,185,6.0,12.0,73,0.00,,,-99.99,,2013-02-03 01:02:00,
2013-02-02 20:11:00,25.0,17.0,-100.00,South,175,4.0,7.0,73,0.00,,,-99.99,,2013-02-03 01:11:00,
2013-02-02 20:21:00,25.0,17.0,-100.00,South,175,4.0,7.0,73,0.00,,,-99.99,,2013-02-03 01:21:00,
2013-02-02 20:32:00,25.0,18.0,-100.00,South,170,4.0,6.0,75,0.00,,,-99.99,,2013-02-03 01:32:00,
2013-02-02 20:42:00,25.0,18.0,-100.00,SSW,195,3.0,5.0,76,0.00,,,-99.99,,2013-02-03 01:42:00,
2013-02-02 20:52:00,25.0,19.0,-100.00,South,185,2.0,5.0,77,0.00,,,-99.99,,2013-02-03 01:52:00,
2013-02-02 21:01:00,25.0,19.0,-100.00,South,185,2.0,5.0,77,0.00,,,-99.99,,2013-02-03 02:01:00,
2013-02-02 21:11:00,25.0,20.0,-100.00,SSE,160,2.0,6.0,79,0.00,,,-99.99,,2013-02-03 02:11:00,
2013-02-02 21:21:00,25.0,20.0,-100.00,South,180,1.0,2.0,81,0.00,,,-99.99,,2013-02-03 02:21:00,
2013-02-02 21:32:00,25.0,20.0,-100.00,South,180,1.0,2.0,81,0.00,,,-99.99,,2013-02-03 02:32:00,
2013-02-02 21:42:00,25.0,20.0,-100.00,South,180,1.0,2.0,82,0.00,,,-99.99,,2013-02-03 02:42:00,
2013-02-02 21:52:00,25.0,21.0,-100.00,WSW,245,0.0,1.0,83,0.00,,,-99.99,,2013-02-03 02:52:00,
2013-02-02 22:02:00,25.0,21.0,-100.00,WSW,245,0.0,1.0,83,0.00,,,-99.99,,2013-02-03 03:02:00,
2013-02-02 22:11:00,25.0,21.0,-100.00,WNW,295,0.0,1.0,84,0.00,,,-99.99,,2013-02-03 03:11:00,
2013-02-02 22:21:00,25.0,21.0,-100.00,NNW,330,1.0,1.0,85,0.00,,,-99.99,,2013-02-03 03:21:00,
2013-02-02 22:32:00,25.0,21.0,-100.00,NNW,330,1.0,1.0,85,0.00,,,-99.99,,2013-02-03 03:32:00,
2013-02-02 22:42:00,24.0,21.0,-100.00,North,0,2.0,4.0,89,0.00,,,-99.99,,2013-02-03 03:42:00,
2013-02-02 22:51:00,24.0,21.0,-100.00,North,0,2.0,4.0,89,0.00,,,-99.99,,2013-02-03 03:51:00,
2013-02-02 23:01:00,24.0,21.0,-100.00,NW,320,0.0,3.0,90,0.00,,,-99.99,,2013-02-03 04:01:00,
2013-02-02 23:11:00,23.0,21.0,-100.00,North,350,2.0,4.0,91,0.00,,,-99.99,,2013-02-03 04:11:00,
2013-02-02 23:21:00,23.0,21.0,-100.00,NW,325,1.0,4.0,91,0.00,,,-99.99,,2013-02-03 04:21:00,
2013-02-02 23:32:00,23.0,21.0,-100.00,NW,325,1.0,4.0,91,0.00,,,-99.99,,2013-02-03 04:32:00,
2013-02-02 23:42:00,23.0,21.0,-100.00,NNW,345,1.0,3.0,93,0.00,,,-99.99,,2013-02-03 04:42:00,
2013-02-02 23:52:00,23.0,21.0,-100.00,NNW,345,1.0,3.0,93,0.00,,,-99.99,,2013-02-03 04:52:00,